STARLINK-2717, 48659

Orbit data source: Space-Track

STARLINK-2717, 48659 is a payload satellite owned by SpaceX/Seattle (US) in LEO that was launched on Wed, 26 May 2021 UTC via an FALCON 9 launch vehicle from the Air Force Eastern Test Range (AFETR). Payload-class satellites include a variety of spacecraft equipped with specific instruments for various scientific and technological missions. These include communications satellites like Starlink; space stations such as the ISS; scientific satellites like the Hubble; Earth observation satellites from companies like Planet Labs, Umbra, and HawkEye 360; GPS; miniature CubeSats for education and research; and military/defense satellites.

Loading next visibility...
Identifier
48659, 2021-044X
Orbit
LEO
Country
Flag of USUS
Related business
Manufacturer
SpaceX/Seattle
Mission
Operational Commercial Communications
Bus & Motor
STARLINK, Unknown motor
Mass
260 kg wet, ~248 kg dry
Launch date (UTC)
2021-05-26 (5 years ago)
Launch vehicle
FALCON 9
Launch site
Air Force Eastern Test Range (AFETR)
Object type
Payload
Rocket body
Debris
Shape & HBR
Box + 1 Pan, 10.1 m
Radar Cross Section
13.562 m², Large (>1 m²)

Expand to show TLE details & history
Last TLE update: 3 days ago

TLE from 3 days ago
0 STARLINK-2717
1 48659U 21044X   26170.81493981  .00001853  00000-0  71455-4 0  9995
2 48659  53.1600 358.7474 0000941  96.5397 263.5712 15.31707307279479
Epoch: 2026-06-19T19:33Z
TLE epoch observation values (Epoch: 2026-06-19T19:33:30.799Z)
Latitude
0.00001°
Longitude
157.33057°
Altitude
471.691 km
Speed
7.631 km/s
True Right ascension
23h 54m 59s
True Declination
0° 00' 00"
Sunlit
Object was in daylight at epoch
Visualization orbit readout
Latitude
Unknown
Longitude
Unknown
Altitude
Unknown
Speed
Unknown
Apparent Right ascension
Unknown
Apparent Declination
Unknown
Sunlit
N/A
Visualization observer readout
Local Sidereal Time
00:50:35
Azimuth
Unknown
Elevation
Unknown
Doppler factor
Unknown
Orbital elements
Apogee altitude
471.619 km
Perigee altitude
470.33 km
Semi-major axis
6,849.112 km
Eccentricity
0.00009
Inclination
53.16°
RAAN
358.7474°
Arg. of periapsis
96.5397°
True anomaly
263.56048°
Mean anomaly
263.5712°
Eccentric anomaly
263.56584°
Mean motion
3.82906 °/min
Orbital period
94.02 mins
BSTAR
0.000071455
Loading maneuver chart data...
Computing Atmospheric mass density...

Documentation

Showing up to 5 results
|